Simultaneous Nadir Overpasses (SNOs) Predictions

Prediction of SNOs between AQUA and NPP Satellite Orbit:

Table of predicted SNOs for the next 14.0 days since TLE Epoch: 10/29/2016
Index Date (AQUA) Time (AQUA) Lat,Lon (AQUA) SZA (AQUA ) Date (NPP) Time (NPP) Lat,Lon (NPP) SZA (NPP ) Distance(km) Time Diff (sec)
1 10/31/2016 05:32:05 75.08, -26.65 111.19 10/31/2016 05:31:49 75.08, -26.71 111.22 1.79 16
2 10/31/2016 06:21:08 -76.29, 144.54 70.08 10/31/2016 06:22:09 -76.29, 144.48 70.12 1.68 61
3 11/02/2016 20:59:21 -74.48, -79.94 67.39 11/02/2016 20:58:13 -74.49, -79.89 67.34 1.38 68
4 11/02/2016 21:48:21 75.76, 91.12 111.31 11/02/2016 21:48:30 75.76, 91.14 111.29 0.70 9
5 11/05/2016 13:15:46 -74.71, 36.49 66.82 11/05/2016 13:15:04 -74.70, 36.45 66.77 1.25 42
6 11/05/2016 14:04:46 75.97,-152.37 111.89 11/05/2016 14:05:21 75.96,-152.42 111.87 1.52 35
7 11/08/2016 05:32:07 -75.07, 153.31 66.42 11/08/2016 05:31:51 -75.06, 153.21 66.38 2.83 16
8 11/08/2016 06:21:08 76.26, -35.55 112.35 11/08/2016 06:22:09 76.26, -35.65 112.31 2.68 61
9 11/10/2016 20:59:26 74.15, 99.27 115.25 11/10/2016 20:58:19 74.14, 99.20 115.34 2.41 67
10 11/10/2016 21:48:18 -75.96, -88.29 66.60 11/10/2016 21:48:27 -75.97, -88.20 66.63 2.45 9




NCC Satellite Simultaneous Nadir Overpasses (SNOs) Prediction Service
